| time (UTC) | temp F | wind direction | speed MPH | gust MPH | rain 1hr in | rain 24hr in | rain mn in | humidity % | barometer mb |
| 20260510023030 | 48 | 146 | 0.0 | 0.0 | 0.00 | 0.52 | 0.52 | 97 | 1011.2 |
| 20260510021519 | 48 | 146 | 0.0 | 0.0 | 0.00 | 0.52 | 0.52 | 97 | 1011.6 |
| 20260510020508 | 48 | 146 | 0.0 | 0.0 | 0.00 | 0.52 | 0.52 | 97 | 1011.6 |
| 20260510020020 | 48 | 158 | 0.0 | 1.0 | 0.00 | 0.52 | 0.52 | 97 | 1011.8 |
| 20260510015509 | 48 | 158 | 0.0 | 1.0 | 0.00 | 0.52 | 0.52 | 97 | 1011.8 |
| 20260510014523 | 48 | 139 | 0.0 | 0.0 | 0.00 | 0.52 | 0.52 | 97 | 1011.9 |
| 20260510014010 | 48 | 103 | 0.0 | 1.0 | 0.00 | 0.52 | 0.52 | 97 | 1011.8 |
| 20260510013511 | 48 | 103 | 0.0 | 1.0 | 0.00 | 0.52 | 0.52 | 96 | 1011.6 |
| 20260510013027 | 48 | 103 | 0.0 | 1.0 | 0.00 | 0.52 | 0.52 | 96 | 1011.4 |
| 20260510011520 | 48 | 18 | 0.0 | 1.0 | 0.00 | 0.52 | 0.52 | 96 | 1011.6 |
| 20260510011012 | 48 | 18 | 0.0 | 0.0 | 0.00 | 0.52 | 0.52 | 96 | 1011.5 |
| 20260510010506 | 48 | 18 | 0.0 | 0.0 | 0.00 | 0.52 | 0.52 | 96 | 1011.4 |
| 20260510010025 | 48 | 18 | 0.0 | 1.0 | 0.00 | 0.52 | 0.52 | 96 | 1011.2 |
| 20260510004524 | 48 | 355 | 0.0 | 2.0 | 0.00 | 0.52 | 0.52 | 96 | 1011.0 |
| 20260510003027 | 49 | 351 | 0.0 | 1.0 | 0.00 | 0.52 | 0.52 | 96 | 1010.9 |
| 20260510002508 | 49 | 133 | 0.0 | 1.0 | 0.00 | 0.52 | 0.52 | 96 | 1010.9 |
| 20260510002011 | 49 | 133 | 0.0 | 1.0 | 0.00 | 0.52 | 0.52 | 96 | 1010.9 |
| 20260510001528 | 49 | 133 | 0.0 | 1.0 | 0.00 | 0.52 | 0.52 | 96 | 1010.8 |
| 20260510001012 | 49 | 133 | 0.0 | 2.0 | 0.00 | 0.52 | 0.52 | 96 | 1010.8 |
| 20260510000016 | 49 | 150 | 1.0 | 2.0 | 0.00 | 0.52 | 0.52 | 96 | 1010.8 |
| 20260509234011 | 49 | 186 | 0.0 | 0.0 | 0.00 | 0.52 | 0.52 | 96 | 1011.0 |
| 20260509233022 | 49 | 101 | 0.0 | 0.0 | 0.00 | 0.52 | 0.52 | 96 | 1010.8 |
| 20260509232006 | 49 | 101 | 0.0 | 0.0 | 0.00 | 0.52 | 0.52 | 96 | 1010.9 |
| 20260509231508 | 49 | 101 | 0.0 | 0.0 | 0.00 | 0.52 | 0.52 | 96 | 1010.8 |
| 20260509224519 | 49 | 98 | 0.0 | 0.0 | 0.00 | 0.52 | 0.52 | 95 | 1010.8 |
| 20260509224010 | 49 | 98 | 0.0 | 0.0 | 0.00 | 0.52 | 0.52 | 96 | 1010.8 |
| 20260509223511 | 49 | 97 | 0.0 | 0.0 | 0.00 | 0.52 | 0.52 | 95 | 1010.8 |
| 20260509223004 | 49 | 88 | 0.0 | 0.0 | 0.00 | 0.52 | 0.52 | 95 | 1010.8 |
| 20260509220505 | 49 | 92 | 0.0 | 0.0 | 0.01 | 0.52 | 0.52 | 95 | 1010.6 |
| 20260509215505 | 49 | 88 | 0.0 | 0.0 | 0.01 | 0.52 | 0.52 | 95 | 1010.7 |
| 20260509214007 | 48 | 23 | 0.0 | 0.0 | 0.02 | 0.52 | 0.52 | 95 | 1010.7 |
| 20260509213505 | 48 | 18 | 0.0 | 0.0 | 0.02 | 0.52 | 0.52 | 95 | 1010.9 |
| 20260509212508 | 48 | 18 | 0.0 | 4.0 | 0.03 | 0.52 | 0.52 | 95 | 1011.1 |
| 20260509204007 | 48 | 96 | 1.0 | 2.0 | 0.07 | 0.51 | 0.51 | 95 | 1011.6 |
| 20260509203506 | 48 | 166 | 0.0 | 1.0 | 0.08 | 0.51 | 0.51 | 95 | 1011.8 |
| 20260509202509 | 48 | 231 | 0.0 | 2.0 | 0.09 | 0.50 | 0.50 | 95 | 1012.0 |
| 20260509200507 | 48 | 32 | 0.0 | 0.0 | 0.09 | 0.48 | 0.48 | 95 | 1011.8 |
| 20260509200025 | 48 | 32 | 0.0 | 0.0 | 0.09 | 0.47 | 0.47 | 95 | 1011.7 |
| 20260509195004 | 47 | 352 | 0.0 | 0.0 | 0.08 | 0.45 | 0.45 | 95 | 1011.9 |
| 20260509194510 | 47 | 352 | 0.0 | 0.0 | 0.08 | 0.44 | 0.44 | 95 | 1011.9 |
| 20260509193506 | 48 | 352 | 0.0 | 0.0 | 0.08 | 0.43 | 0.43 | 95 | 1011.9 |
| 20260509193013 | 48 | 352 | 0.0 | 0.0 | 0.07 | 0.42 | 0.42 | 95 | 1012.0 |
| 20260509192506 | 47 | 352 | 0.0 | 0.0 | 0.06 | 0.41 | 0.41 | 95 | 1012.1 |
| 20260509192008 | 47 | 352 | 0.0 | 0.0 | 0.07 | 0.41 | 0.41 | 95 | 1012.1 |
| 20260509191520 | 47 | 352 | 0.0 | 0.0 | 0.06 | 0.40 | 0.40 | 95 | 1012.1 |
| 20260509191011 | 47 | 354 | 0.0 | 2.0 | 0.06 | 0.39 | 0.39 | 95 | 1012.1 |
| 20260509190509 | 47 | 351 | 0.0 | 2.0 | 0.06 | 0.39 | 0.39 | 94 | 1012.1 |
| 20260509185508 | 47 | 336 | 0.0 | 1.0 | 0.05 | 0.37 | 0.37 | 94 | 1012.1 |
| 20260509184525 | 47 | 338 | 0.0 | 1.0 | 0.05 | 0.36 | 0.36 | 95 | 1012.2 |
| 20260509184003 | 47 | 345 | 0.0 | 1.0 | 0.06 | 0.36 | 0.36 | 95 | 1012.2 |
| 20260509183503 | 47 | 353 | 0.0 | 0.0 | 0.05 | 0.35 | 0.35 | 95 | 1012.3 |
| 20260509183018 | 47 | 353 | 0.0 | 0.0 | 0.06 | 0.35 | 0.35 | 95 | 1012.3 |
| 20260509182503 | 47 | 359 | 0.0 | 0.0 | 0.07 | 0.35 | 0.35 | 95 | 1012.4 |
| 20260509182007 | 47 | 316 | 0.0 | 0.0 | 0.06 | 0.34 | 0.34 | 95 | 1012.4 |
| 20260509181517 | 47 | 316 | 0.0 | 1.0 | 0.07 | 0.34 | 0.34 | 95 | 1012.4 |
| 20260509181006 | 47 | 316 | 0.0 | 3.0 | 0.06 | 0.33 | 0.33 | 95 | 1012.5 |
| 20260509180507 | 46 | 333 | 0.0 | 3.0 | 0.07 | 0.33 | 0.33 | 95 | 1012.6 |
| 20260509175506 | 46 | 349 | 0.0 | 3.0 | 0.07 | 0.32 | 0.32 | 94 | 1012.7 |
| 20260509173508 | 45 | 344 | 0.0 | 1.0 | 0.08 | 0.30 | 0.30 | 94 | 1013.0 |
| 20260509173027 | 45 | 344 | 0.0 | 1.0 | 0.08 | 0.29 | 0.29 | 94 | 1013.1 |
| 20260509172508 | 46 | 327 | 0.0 | 0.0 | 0.08 | 0.28 | 0.28 | 94 | 1013.3 |
| 20260509172007 | 46 | 327 | 0.0 | 0.0 | 0.09 | 0.28 | 0.28 | 94 | 1013.4 |
| 20260509171513 | 45 | 328 | 0.0 | 0.0 | 0.09 | 0.27 | 0.27 | 94 | 1013.4 |
| 20260509171006 | 45 | 328 | 0.0 | 0.0 | 0.10 | 0.27 | 0.27 | 94 | 1013.4 |
| 20260509170507 | 45 | 328 | 0.0 | 0.0 | 0.09 | 0.26 | 0.26 | 94 | 1013.4 |
| 20260509170019 | 45 | 327 | 0.0 | 0.0 | 0.09 | 0.25 | 0.25 | 94 | 1013.5 |
| 20260509165511 | 45 | 327 | 0.0 | 0.0 | 0.10 | 0.25 | 0.25 | 94 | 1013.5 |
| 20260509165012 | 45 | 327 | 0.0 | 0.0 | 0.09 | 0.24 | 0.24 | 95 | 1013.6 |
| 20260509164010 | 44 | 327 | 0.0 | 0.0 | 0.08 | 0.22 | 0.22 | 95 | 1013.6 |
| 20260509163514 | 44 | 327 | 0.0 | 0.0 | 0.08 | 0.22 | 0.22 | 95 | 1013.5 |
| 20260509162011 | 44 | 326 | 0.0 | 3.0 | 0.07 | 0.19 | 0.19 | 94 | 1013.6 |
| 20260509161526 | 44 | 321 | 0.0 | 3.0 | 0.06 | 0.18 | 0.18 | 94 | 1013.5 |
| 20260509161010 | 44 | 329 | 0.0 | 3.0 | 0.05 | 0.17 | 0.17 | 95 | 1013.5 |
| 20260509160504 | 44 | 345 | 1.0 | 3.0 | 0.06 | 0.17 | 0.17 | 94 | 1013.6 |
| 20260509155506 | 44 | 348 | 1.0 | 4.0 | 0.05 | 0.15 | 0.15 | 94 | 1013.7 |
| 20260509155008 | 44 | 323 | 1.0 | 4.0 | 0.06 | 0.15 | 0.15 | 94 | 1013.8 |
| 20260509154518 | 44 | 347 | 0.0 | 4.0 | 0.06 | 0.15 | 0.15 | 94 | 1013.9 |
| 20260509154008 | 44 | 349 | 1.0 | 4.0 | 0.05 | 0.14 | 0.14 | 94 | 1014.0 |
| 20260509153509 | 43 | 100 | 0.0 | 1.0 | 0.06 | 0.14 | 0.14 | 94 | 1014.0 |
| 20260509152509 | 43 | 346 | 0.0 | 1.0 | 0.06 | 0.13 | 0.13 | 94 | 1014.2 |
| 20260509151007 | 43 | 97 | 0.0 | 1.0 | 0.05 | 0.12 | 0.12 | 94 | 1014.3 |
| 20260509150508 | 43 | 90 | 0.0 | 1.0 | 0.04 | 0.11 | 0.11 | 94 | 1014.4 |
| 20260509150026 | 42 | 90 | 0.0 | 1.0 | 0.04 | 0.11 | 0.11 | 94 | 1014.5 |
| 20260509145512 | 42 | 68 | 0.0 | 1.0 | 0.04 | 0.10 | 0.10 | 94 | 1014.6 |
| 20260509145014 | 42 | 93 | 0.0 | 2.0 | 0.03 | 0.09 | 0.09 | 93 | 1014.6 |
| 20260509144008 | 42 | 85 | 0.0 | 2.0 | 0.03 | 0.09 | 0.09 | 93 | 1014.5 |
| 20260509143508 | 42 | 97 | 0.0 | 0.0 | 0.02 | 0.08 | 0.08 | 93 | 1014.4 |
| 20260509143027 | 41 | 89 | 0.0 | 0.0 | 0.02 | 0.08 | 0.08 | 93 | 1014.4 |
| 20260509142512 | 42 | 38 | 0.0 | 0.0 | 0.01 | 0.07 | 0.07 | 93 | 1014.4 |
| 20260509142004 | 41 | 37 | 0.0 | 0.0 | 0.02 | 0.07 | 0.07 | 93 | 1014.4 |
| 20260509141504 | 41 | 91 | 0.0 | 0.0 | 0.02 | 0.07 | 0.07 | 92 | 1014.3 |
| 20260509141009 | 41 | 91 | 0.0 | 0.0 | 0.02 | 0.07 | 0.07 | 92 | 1014.3 |
| 20260509140503 | 41 | 91 | 0.0 | 0.0 | 0.02 | 0.07 | 0.07 | 92 | 1014.3 |
| 20260509140010 | 41 | 91 | 0.0 | 0.0 | 0.02 | 0.07 | 0.07 | 92 | 1014.3 |
| 20260509135505 | 41 | 91 | 0.0 | 0.0 | 0.01 | 0.06 | 0.06 | 92 | 1014.2 |
| 20260509135007 | 41 | 92 | 0.0 | 0.0 | 0.01 | 0.06 | 0.06 | 92 | 1014.4 |
| 20260509134513 | 41 | 127 | 0.0 | 0.0 | 0.01 | 0.06 | 0.06 | 92 | 1014.4 |
| 20260509134004 | 42 | 127 | 0.0 | 0.0 | 0.01 | 0.06 | 0.06 | 93 | 1014.5 |
| 20260509133504 | 41 | 110 | 0.0 | 0.0 | 0.01 | 0.06 | 0.06 | 93 | 1014.4 |
| 20260509133020 | 41 | 122 | 0.0 | 0.0 | 0.02 | 0.06 | 0.06 | 93 | 1014.3 |
| 20260509132509 | 41 | 124 | 0.0 | 0.0 | 0.02 | 0.06 | 0.06 | 93 | 1014.4 |
| 20260509132009 | 40 | 124 | 0.0 | 0.0 | 0.01 | 0.05 | 0.05 | 93 | 1014.4 |
| 20260509131528 | 40 | 92 | 0.0 | 0.0 | 0.01 | 0.05 | 0.05 | 93 | 1014.4 |
| 20260509131013 | 40 | 99 | 0.0 | 1.0 | 0.01 | 0.05 | 0.05 | 93 | 1014.3 |
| 20260509130510 | 40 | 98 | 0.0 | 1.0 | 0.01 | 0.05 | 0.05 | 93 | 1014.2 |
| 20260509130012 | 40 | 16 | 0.0 | 1.0 | 0.01 | 0.05 | 0.05 | 94 | 1014.2 |
| 20260509125504 | 40 | 15 | 0.0 | 1.0 | 0.01 | 0.05 | 0.05 | 94 | 1014.3 |
| 20260509125004 | 39 | 11 | 0.0 | 1.0 | 0.01 | 0.05 | 0.05 | 94 | 1014.3 |
| 20260509124509 | 39 | 1 | 0.0 | 1.0 | 0.01 | 0.05 | 0.05 | 93 | 1014.3 |
| 20260509124005 | 39 | 4 | 0.0 | 1.0 | 0.02 | 0.05 | 0.05 | 94 | 1014.4 |
| 20260509123504 | 39 | 88 | 0.0 | 1.0 | 0.02 | 0.05 | 0.05 | 93 | 1014.5 |
| 20260509123014 | 39 | 88 | 0.0 | 1.0 | 0.02 | 0.04 | 0.04 | 93 | 1014.4 |
| 20260509122504 | 39 | 127 | 0.0 | 1.0 | 0.02 | 0.04 | 0.04 | 93 | 1014.4 |
| 20260509122008 | 39 | 128 | 0.0 | 1.0 | 0.03 | 0.04 | 0.04 | 93 | 1014.5 |
| 20260509121518 | 39 | 130 | 0.0 | 1.0 | 0.03 | 0.04 | 0.04 | 94 | 1014.5 |
| 20260509121010 | 39 | 162 | 0.0 | 2.0 | 0.03 | 0.04 | 0.04 | 94 | 1014.6 |
| 20260509120509 | 38 | 154 | 0.0 | 2.0 | 0.04 | 0.04 | 0.04 | 94 | 1014.7 |
| 20260509120022 | 38 | 214 | 0.0 | 1.0 | 0.04 | 0.04 | 0.04 | 93 | 1014.7 |
| 20260509115502 | 38 | 90 | 0.0 | 0.0 | 0.04 | 0.04 | 0.04 | 94 | 1014.6 |
| 20260509115002 | 38 | 90 | 0.0 | 1.0 | 0.04 | 0.04 | 0.04 | 94 | 1014.4 |
| 20260509114506 | 38 | 90 | 0.0 | 1.0 | 0.04 | 0.04 | 0.04 | 93 | 1014.5 |
| 20260509114004 | 38 | 90 | 0.0 | 0.0 | 0.03 | 0.03 | 0.03 | 93 | 1014.6 |
| 20260509113504 | 38 | 91 | 0.0 | 0.0 | 0.03 | 0.03 | 0.03 | 93 | 1014.6 |
| 20260509113013 | 38 | 91 | 0.0 | 0.0 | 0.02 | 0.02 | 0.02 | 93 | 1014.6 |
| 20260509112503 | 37 | 90 | 0.0 | 0.0 | 0.02 | 0.02 | 0.02 | 93 | 1014.5 |
| 20260509112006 | 37 | 91 | 0.0 | 1.0 | 0.01 | 0.01 | 0.01 | 93 | 1014.4 |
| 20260509111517 | 37 | 90 | 0.0 | 1.0 | 0.01 | 0.01 | 0.01 | 93 | 1014.5 |
| 20260509111007 | 37 | 90 | 0.0 | 1.0 | 0.01 | 0.01 | 0.01 | 94 | 1014.5 |
| 20260509110508 | 37 | 90 | 0.0 | 1.0 | 0.00 | 0.00 | 0.00 | 94 | 1014.6 |
| 20260509110020 | 37 | 89 | 0.0 | 0.0 | 0.00 | 0.00 | 0.00 | 94 | 1014.7 |
| 20260509105510 | 37 | 89 | 0.0 | 1.0 | 0.00 | 0.00 | 0.00 | 94 | 1014.7 |
| 20260509105011 | 37 | 89 | 0.0 | 1.0 | 0.00 | 0.00 | 0.00 | 94 | 1014.7 |
| 20260509104526 | 37 | 87 | 0.0 | 1.0 | 0.00 | 0.00 | 0.00 | 94 | 1014.9 |
| 20260509104010 | 37 | 85 | 0.0 | 1.0 | 0.00 | 0.00 | 0.00 | 94 | 1014.9 |
| 20260509103504 | 36 | 108 | 0.0 | 0.0 | 0.00 | 0.00 | 0.00 | 94 | 1014.9 |
| 20260509103009 | 36 | 205 | 0.0 | 0.0 | 0.00 | 0.00 | 0.00 | 94 | 1014.9 |
| 20260509102504 | 36 | 205 | 0.0 | 0.0 | 0.00 | 0.00 | 0.00 | 94 | 1014.8 |
| 20260509102004 | 36 | 205 | 0.0 | 0.0 | 0.00 | 0.00 | 0.00 | 94 | 1014.6 |
| 20260509101514 | 36 | 205 | 0.0 | 0.0 | 0.00 | 0.00 | 0.00 | 94 | 1014.5 |
| 20260509101008 | 36 | 205 | 0.0 | 1.0 | 0.00 | 0.00 | 0.00 | 94 | 1014.6 |
| 20260509100504 | 35 | 205 | 0.0 | 1.0 | 0.00 | 0.00 | 0.00 | 94 | 1014.6 |
| 20260509100018 | 35 | 198 | 0.0 | 1.0 | 0.00 | 0.00 | 0.00 | 94 | 1014.6 |
| 20260509095508 | 35 | 89 | 0.0 | 1.0 | 0.00 | 0.00 | 0.00 | 94 | 1014.5 |
| 20260509095008 | 35 | 91 | 0.0 | 1.0 | 0.00 | 0.00 | 0.00 | 94 | 1014.5 |
| 20260509094523 | 35 | 157 | 0.0 | 2.0 | 0.00 | 0.00 | 0.00 | 94 | 1014.5 |
| 20260509094008 | 35 | 255 | 0.0 | 2.0 | 0.00 | 0.00 | 0.00 | 94 | 1014.6 |
| 20260509093512 | 35 | 280 | 0.0 | 0.0 | 0.00 | 0.00 | 0.00 | 94 | 1014.3 |
| 20260509093028 | 34 | 280 | 0.0 | 0.0 | 0.00 | 0.00 | 0.00 | 94 | 1014.2 |
| 20260509091521 | 34 | 280 | 0.0 | 0.0 | 0.00 | 0.00 | 0.00 | 94 | 1014.2 |
| 20260509091004 | 34 | 280 | 0.0 | 0.0 | 0.00 | 0.00 | 0.00 | 93 | 1014.2 |
| 20260509090508 | 34 | 280 | 0.0 | 0.0 | 0.00 | 0.00 | 0.00 | 94 | 1014.2 |
| 20260509090015 | 34 | 280 | 0.0 | 0.0 | 0.00 | 0.00 | 0.00 | 94 | 1014.2 |
| 20260509085505 | 34 | 280 | 0.0 | 0.0 | 0.00 | 0.00 | 0.00 | 94 | 1014.1 |
| 20260509085004 | 33 | 280 | 0.0 | 0.0 | 0.00 | 0.00 | 0.00 | 94 | 1014.1 |
| 20260509084526 | 33 | 280 | 0.0 | 0.0 | 0.00 | 0.00 | 0.00 | 94 | 1014.1 |
| 20260509084005 | 33 | 280 | 0.0 | 0.0 | 0.00 | 0.00 | 0.00 | 93 | 1014.0 |
| 20260509083508 | 33 | 280 | 0.0 | 0.0 | 0.00 | 0.00 | 0.00 | 93 | 1013.9 |
| 20260509083024 | 33 | 280 | 0.0 | 0.0 | 0.00 | 0.00 | 0.00 | 93 | 1013.8 |
| 20260509082510 | 33 | 280 | 0.0 | 0.0 | 0.00 | 0.00 | 0.00 | 93 | 1013.9 |
| 20260509082008 | 33 | 280 | 0.0 | 0.0 | 0.00 | 0.00 | 0.00 | 93 | 1013.9 |
| 20260509081524 | 33 | 280 | 0.0 | 0.0 | 0.00 | 0.00 | 0.00 | 93 | 1013.9 |
| 20260509081012 | 33 | 280 | 0.0 | 0.0 | 0.00 | 0.00 | 0.00 | 92 | 1013.9 |
| 20260509080510 | 33 | 280 | 0.0 | 0.0 | 0.00 | 0.00 | 0.00 | 92 | 1013.9 |
| 20260509080037 | 33 | 280 | 0.0 | 0.0 | 0.00 | 0.00 | 0.00 | 92 | 1013.9 |
| 20260509075505 | 33 | 280 | 0.0 | 0.0 | 0.00 | 0.00 | 0.00 | 92 | 1013.7 |
| 20260509075010 | 33 | 280 | 0.0 | 0.0 | 0.00 | 0.00 | 0.00 | 92 | 1013.7 |
| 20260509074516 | 33 | 280 | 0.0 | 0.0 | 0.00 | 0.00 | 0.00 | 92 | 1013.7 |
| 20260509074004 | 33 | 280 | 0.0 | 0.0 | 0.00 | 0.00 | 0.00 | 92 | 1013.8 |
| 20260509073507 | 33 | 280 | 0.0 | 0.0 | 0.00 | 0.00 | 0.00 | 91 | 1013.8 |
| 20260509073038 | 34 | 280 | 0.0 | 0.0 | 0.00 | 0.00 | 0.00 | 91 | 1013.8 |
| 20260509072507 | 34 | 280 | 0.0 | 0.0 | 0.00 | 0.00 | 0.00 | 91 | 1013.8 |
| 20260509072012 | 34 | 280 | 0.0 | 0.0 | 0.00 | 0.00 | 0.00 | 91 | 1013.8 |
| 20260509071522 | 34 | 280 | 0.0 | 1.0 | 0.00 | 0.00 | 0.00 | 91 | 1013.9 |
| 20260509071010 | 34 | 239 | 0.0 | 1.0 | 0.00 | 0.00 | 0.00 | 91 | 1013.9 |
| 20260509070026 | 34 | 210 | 0.0 | 1.0 | 0.00 | 0.00 | 0.00 | 91 | 1013.7 |
| 20260509065513 | 34 | 210 | 0.0 | 1.0 | 0.00 | 0.00 | 0.00 | 91 | 1013.7 |
| 20260509064529 | 35 | 345 | 0.0 | 0.0 | 0.00 | 0.00 | 0.00 | 90 | 1013.6 |
| 20260509063508 | 35 | 345 | 0.0 | 0.0 | 0.00 | 0.00 | 0.00 | 90 | 1013.8 |
| 20260509063020 | 35 | 345 | 0.0 | 0.0 | 0.00 | 0.00 | 0.00 | 90 | 1013.8 |
| 20260509062513 | 36 | 345 | 0.0 | 0.0 | 0.00 | 0.00 | 0.00 | 89 | 1013.8 |
| 20260509062010 | 36 | 345 | 0.0 | 0.0 | 0.00 | 0.00 | 0.00 | 89 | 1013.6 |
| 20260509061525 | 36 | 345 | 0.0 | 0.0 | 0.00 | 0.00 | 0.00 | 89 | 1013.6 |
| 20260509061011 | 36 | 345 | 0.0 | 0.0 | 0.00 | 0.00 | 0.00 | 89 | 1013.5 |
| 20260509060509 | 36 | 346 | 0.0 | 0.0 | 0.00 | 0.00 | 0.00 | 89 | 1013.5 |
| 20260509060025 | 37 | 345 | 0.0 | 0.0 | 0.00 | 0.00 | 0.00 | 89 | 1013.6 |
| 20260509055509 | 36 | 346 | 0.0 | 0.0 | 0.00 | 0.00 | 0.00 | 89 | 1013.7 |
| 20260509055011 | 37 | 345 | 0.0 | 0.0 | 0.00 | 0.00 | 0.00 | 89 | 1013.7 |
| 20260509054531 | 37 | 346 | 0.0 | 1.0 | 0.00 | 0.00 | 0.00 | 89 | 1013.8 |
| 20260509054011 | 36 | 346 | 0.0 | 1.0 | 0.00 | 0.00 | 0.00 | 89 | 1013.8 |
| 20260509053511 | 36 | 338 | 0.0 | 0.0 | 0.00 | 0.00 | 0.00 | 89 | 1013.9 |
| 20260509053032 | 36 | 332 | 0.0 | 0.0 | 0.00 | 0.00 | 0.00 | 89 | 1014.0 |
| 20260509052508 | 36 | 332 | 0.0 | 0.0 | 0.00 | 0.00 | 0.00 | 89 | 1014.1 |
| 20260509052007 | 36 | 332 | 0.0 | 0.0 | 0.00 | 0.00 | 0.00 | 89 | 1014.0 |
| 20260509051517 | 35 | 332 | 0.0 | 0.0 | 0.00 | 0.00 | 0.00 | 89 | 1014.0 |
| 20260509051007 | 35 | 332 | 0.0 | 0.0 | 0.00 | 0.00 | 0.00 | 89 | 1014.0 |
| 20260509050006 | 35 | 332 | 0.0 | 0.0 | 0.00 | 0.00 | 0.00 | 89 | 1013.7 |
| 20260509044508 | 35 | 332 | 0.0 | 0.0 | 0.00 | 0.00 | 0.00 | 88 | 1013.6 |
| 20260509043507 | 35 | 332 | 0.0 | 0.0 | 0.00 | 0.00 | 0.00 | 88 | 1013.6 |
| 20260509043026 | 35 | 332 | 0.0 | 0.0 | 0.00 | 0.00 | 0.00 | 88 | 1013.7 |
| 20260509041514 | 36 | 332 | 0.0 | 0.0 | 0.00 | 0.00 | 0.00 | 87 | 1013.6 |
| 20260509041011 | 36 | 332 | 0.0 | 0.0 | 0.00 | 0.00 | 0.00 | 87 | 1013.5 |
| 20260509040020 | 36 | 332 | 0.0 | 0.0 | 0.00 | 0.00 | 0.00 | 86 | 1013.6 |
| 20260509035005 | 36 | 333 | 0.0 | 0.0 | 0.00 | 0.00 | 0.00 | 85 | 1013.5 |
| 20260509034527 | 37 | 333 | 0.0 | 0.0 | 0.00 | 0.00 | 0.00 | 85 | 1013.5 |
| 20260509033502 | 37 | 329 | 0.0 | 0.0 | 0.00 | 0.00 | 0.00 | 85 | 1013.4 |
| 20260509033008 | 37 | 329 | 0.0 | 0.0 | 0.00 | 0.00 | 0.00 | 84 | 1013.5 |
| 20260509031517 | 38 | 329 | 0.0 | 0.0 | 0.00 | 0.00 | 0.00 | 83 | 1013.5 |
| 20260509030020 | 39 | 329 | 0.0 | 0.0 | 0.00 | 0.00 | 0.00 | 82 | 1013.3 |
| 20260509024522 | 39 | 329 | 0.0 | 0.0 | 0.00 | 0.00 | 0.00 | 81 | 1013.3 |
| 20260509023509 | 39 | 328 | 0.0 | 0.0 | 0.00 | 0.00 | 0.00 | 80 | 1013.2 |